This is the latest recevied weather packets stored in our database for station/object KD5GAT-51. If no packets are shown the sender has not sent any weather packets the latest 10 day(s).
| Time | Temp. | Humidity | Pressure | Rain* | Wind** | Luminosity | Snow |
|---|---|---|---|---|---|---|---|
| 1777668038 | 17.78° C | 100% | 1013.9 hPa | - | - | - | - |
| 1777667138 | 18.89° C | 100% | 1013.9 hPa | - | - | - | - |
| 1777666237 | 19.44° C | 100% | 1013.4 hPa | - | - | - | - |
| 1777665337 | 20° C | 100% | 1013.2 hPa | - | - | - | - |
| 1777664437 | 19.44° C | 100% | 1012.7 hPa | - | - | - | - |
| 1777663537 | 20.56° C | 100% | 1012.6 hPa | - | - | - | - |
| 1777662637 | 21.11° C | 100% | 1013 hPa | - | - | - | - |
| 1777661737 | 21.11° C | 100% | 1012.7 hPa | - | - | - | - |
| 1777660836 | 20° C | 100% | 1014 hPa | - | - | - | - |
| 1777659936 | 17.78° C | 100% | 1014.5 hPa | - | - | - | - |
| 1777659036 | 17.22° C | 100% | 1013.4 hPa | - | - | - | - |
| 1777658136 | 17.22° C | 100% | 1014.2 hPa | - | - | - | - |
| 1777657236 | 17.78° C | 100% | 1014.3 hPa | - | - | - | - |
| 1777656336 | 18.33° C | 100% | 1013.9 hPa | - | - | - | - |
| 1777655435 | 17.22° C | 100% | 1014.8 hPa | - | - | - | - |
| 1777654535 | 17.22° C | 100% | 1012.4 hPa | - | - | - | - |
| 1777653635 | 17.78° C | 100% | 1012.7 hPa | - | - | - | - |
| 1777652735 | 18.89° C | 100% | 1013.1 hPa | - | - | - | - |
| 1777651835 | 20° C | 100% | 1012.6 hPa | - | - | - | - |
| 1777650935 | 19.44° C | 100% | 1012.9 hPa | - | - | - | - |
| 1777650034 | 19.44° C | 100% | 1013.2 hPa | - | - | - | - |
| 1777649134 | 17.78° C | 100% | 1013.3 hPa | - | - | - | - |
| 1777648234 | 16.11° C | 100% | 1013.6 hPa | - | - | - | - |
| 1777647334 | 16.11° C | 100% | 1014.8 hPa | - | - | - | - |
| 1777646434 | 16.11° C | 100% | 1013.9 hPa | - | - | - | - |
* Rain since midnight (hover to see other rain measurements)
** Current wind speed in m/s (hover to see current wind gust speed)